User: anonymous   Login
Location: Unspecified
(0.0000°N, 0.0000°E)
Time: 00:05:06
(UTC+00:00)
Language:

ALMASAT-1 - Orbit

View from above orbital plane
View from above orbital plane
View from above satellite
View from above satellite

Ground track
Ground track

The orbit data is extracted from the following two-line orbital elements,

1 38078U 12006B   20116.25753030  .27938345  45898-5  14626-3 0  9992
2 38078  69.4046  73.0187 0017419 186.1699 260.1576 16.54569111446689
Epoch (UTC): 25 April 2020 06:10:50
Eccentricity: 0.0017419
inclination: 69.4046°
perigee height: 116 km
apogee height: 138 km
right ascension of ascending node: 73.0187°
argument of perigee: 186.1699°
revolutions per day: 16.54569111
mean anomaly at epoch: 260.1576°
orbit number at epoch: 44668

The dashed part of the orbit path shows where the satellite is in the earth's shadow,  

DLR